Location: Lane
(33.5226°N, 79.8788°W)
Time: 19:03:10
(UTC+00:00)

Courier 1B Rocket - Pass Details

Date: 09 October 2022
Orbit: 920 x 1202 km, 28.3° (Epoch: 01 December)

Event Time Altitude Azimuth Distance (km) Brightness Sun altitude
Rises 03:06:37 0° 268° (W) 3,700 8.5 -51.0°
Enters shadow 03:07:53 - 263° (W) 3,297 8.1 -51.2°
Reaches altitude 10° 03:09:56 10° 254° (WSW) 2,705 - -51.5°
Maximum altitude 03:14:45 22° 205° (SSW) 1,920 - -52.3°
Drops below altitude 10° 03:19:26 10° 156° (SSE) 2,612 - -53.1°
Sets 03:22:35 0° 142° (SE) 3,541 - -53.5°
